Waarnemingen

Advertentie
Mijn weer
La Hague, Frankrijk (7020): temperatuur & dauwpunt: 11.10.2019 10:00:00 - 17.10.2019 10:00:00 (CEST)La Hague, Frankrijk (7020): windsnelheid & windstoten: 11.10.2019 10:00:00 - 17.10.2019 10:00:00 (CEST)La Hague, Frankrijk (7020): windrichting: 11.10.2019 10:00:00 - 17.10.2019 10:00:00 (CEST)La Hague, Frankrijk (7020): luchtdruk: 11.10.2019 10:00:00 - 17.10.2019 10:00:00 (CEST)La Hague, Frankrijk (7020): zicht: 11.10.2019 10:00:00 - 17.10.2019 10:00:00 (CEST)La Hague, Frankrijk (7020): neerslag: 11.10.2019 10:00:00 - 17.10.2019 10:00:00 (CEST)
Datum & Tijd tt [°C] td [°C] ff [km/u] ff [kn] fx [km/u] fx [kn] dd ppp [hPa] vv [km] rr [mm]
17.10.2019 10:00:00 13,2 10,9 37 20 56 31 Z 1006,7 - 0,2
17.10.2019 09:00:00 13,2 11,3 30 16 54 29 ZZW 1006,6 - 0,4
17.10.2019 08:00:00 12,9 9,0 21 12 40 21 Z 1006,6 - 0,0
17.10.2019 07:00:00 13,8 9,0 27 14 45 24 ZZW 1006,9 - 0,0
17.10.2019 06:00:00 13,8 9,2 29 15 49 27 ZZW 1007,2 - 0,0
17.10.2019 05:00:00 13,8 8,4 23 13 35 19 ZW 1007,4 20 0,0
17.10.2019 04:00:00 13,7 8,7 25 14 39 21 ZW 1007,6 - 0,0
17.10.2019 03:00:00 14,0 9,8 27 15 38 21 WZW 1007,7 - 0,0
17.10.2019 02:00:00 13,6 9,8 25 13 35 19 ZZW 1007,7 10 0,0
17.10.2019 01:00:00 14,2 9,0 23 12 31 17 WZW 1007,6 - 0,0
17.10.2019 00:00:00 13,8 9,2 17 9 36 19 W 1007,6 - 0,0
16.10.2019 23:00:00 14,3 9,5 23 13 30 16 WZW 1007,3 15 0,0
16.10.2019 22:00:00 14,2 9,2 21 11 29 16 W 1006,7 - 0,0
16.10.2019 21:00:00 13,5 11,2 19 10 29 15 ZW 1006,4 - 0,0
16.10.2019 20:00:00 13,4 11,1 16 8 22 12 ZW 1006,0 15 0,0
16.10.2019 19:00:00 12,9 10,8 10 5 16 9 ZZW 1005,3 - 0,0
16.10.2019 18:00:00 13,0 10,4 6 3 10 5 ZZW 1004,9 - 0,0
16.10.2019 17:00:00 12,7 10,4 3 2 9 5 ZZO 1004,8 15 0,8
16.10.2019 16:00:00 12,9 10,3 8 5 19 10 WNW 1004,9 - 0,6
16.10.2019 15:00:00 13,3 10,5 6 3 16 9 W 1004,8 - 0,2
16.10.2019 14:00:00 13,1 10,5 10 5 18 10 WZW 1004,8 15 0,0
16.10.2019 13:00:00 12,2 10,1 8 4 34 18 WZW 1004,9 - 1,2
16.10.2019 12:00:00 14,1 9,7 24 13 35 19 WNW 1004,7 - 0,0
16.10.2019 11:00:00 14,5 10,9 24 13 35 19 WNW 1004,1 8 0,0
16.10.2019 10:00:00 14,6 11,4 24 13 39 21 W 1003,7 - 0,0
16.10.2019 09:00:00 14,8 11,8 29 16 45 25 W 1002,7 - 0,0
16.10.2019 08:00:00 14,7 13,7 32 18 50 27 W 1002,1 8 1,0
16.10.2019 07:00:00 16,0 15,5 34 19 56 30 ZZW 1001,5 - 0,0
16.10.2019 06:00:00 16,0 15,5 38 21 64 34 ZZW 1001,3 - 1,0
16.10.2019 05:00:00 15,6 15,0 44 24 71 38 Z 1001,1 6 2,2
16.10.2019 04:00:00 15,0 14,2 46 25 70 38 Z 1001,7 - 2,8
16.10.2019 03:00:00 14,6 13,8 47 25 72 39 Z 1002,2 - 3,5
16.10.2019 02:00:00 14,3 13,3 41 22 63 34 Z 1003,4 6 2,6
16.10.2019 01:00:00 14,7 12,6 40 21 59 32 Z 1004,8 - 0,0
16.10.2019 00:00:00 14,6 12,5 38 20 53 28 Z 1005,7 - 0,0
15.10.2019 23:00:00 14,9 11,7 35 19 50 27 ZZW 1006,6 16 0,0
15.10.2019 22:00:00 15,3 11,3 35 19 48 26 ZZW 1006,9 - 0,2
15.10.2019 21:00:00 15,1 11,7 29 16 50 27 ZW 1007,1 - 0,0
15.10.2019 20:00:00 14,8 10,4 30 16 44 24 ZW 1007,4 16 0,0
15.10.2019 19:00:00 14,7 9,7 33 18 51 27 WZW 1007,0 - 0,0
15.10.2019 18:00:00 14,9 10,1 39 21 55 30 W 1006,4 - 0,0
15.10.2019 17:00:00 15,8 11,6 31 17 46 25 W 1006,0 12 0,0
15.10.2019 16:00:00 15,5 12,1 21 11 36 19 W 1005,5 - 0,0
15.10.2019 15:00:00 16,6 12,1 21 11 30 16 ZW 1005,3 - 0,0
15.10.2019 14:00:00 16,3 12,3 18 10 27 15 ZW 1005,1 16 0,0
15.10.2019 13:00:00 15,8 11,2 19 11 30 16 ZW 1005,2 - 0,0
15.10.2019 12:00:00 15,2 11,0 19 11 27 15 ZZW 1004,9 - 0,0
15.10.2019 11:00:00 14,6 10,2 18 10 32 17 ZZW 1004,6 16 0,0
15.10.2019 10:00:00 13,9 10,3 24 13 38 20 ZW 1004,0 - 0,0
15.10.2019 09:00:00 13,9 10,9 27 15 37 20 ZW 1003,6 - 0,0
15.10.2019 08:00:00 14,1 11,4 26 14 39 21 ZW 1003,5 12 0,0
15.10.2019 07:00:00 14,2 11,5 25 14 38 20 ZZW 1003,3 - 0,0
15.10.2019 06:00:00 14,3 11,6 27 14 41 22 ZW 1002,8 - 0,0
15.10.2019 05:00:00 14,3 11,1 31 17 42 23 ZW 1002,8 12 0,0
15.10.2019 04:00:00 14,5 11,3 25 14 34 19 ZW 1003,1 - 0,0
15.10.2019 03:00:00 14,2 12,1 23 12 36 20 WZW 1003,4 - 0,0
15.10.2019 02:00:00 14,7 13,2 18 10 36 20 Z 1003,1 10 0,0
15.10.2019 01:00:00 14,9 12,6 21 12 38 21 ZZW 1002,9 - 0,0
15.10.2019 00:00:00 15,3 13,0 25 14 37 20 ZW 1003,0 - 0,0
14.10.2019 23:00:00 15,0 12,9 28 15 43 23 ZW 1003,2 - 0,0
14.10.2019 22:00:00 14,9 13,3 31 17 43 23 WZW 1002,8 - 0,0
14.10.2019 21:00:00 14,7 13,6 34 18 44 24 WZW 1002,6 - 0,2
14.10.2019 20:00:00 15,0 13,2 32 17 42 23 WZW 1001,9 10 0,0
14.10.2019 19:00:00 15,0 14,0 32 17 42 23 W 1000,7 - 0,0
14.10.2019 18:00:00 15,6 14,5 18 10 24 13 W 1000,4 - 0,4
14.10.2019 17:00:00 15,5 14,4 19 10 24 13 ZW 1000,5 14 0,2
14.10.2019 16:00:00 15,8 14,8 12 7 21 11 ZZW 1000,1 - 0,2
14.10.2019 15:00:00 15,6 14,8 16 9 23 13 ZZW 1000,7 - 0,0
14.10.2019 14:00:00 15,7 15,1 9 5 21 11 ZZW 1001,3 8 1,2
14.10.2019 13:00:00 15,3 14,7 17 9 36 19 O 1002,2 - 1,2
14.10.2019 12:00:00 15,0 14,0 29 16 42 23 ONO 1003,1 - 0,0
14.10.2019 11:00:00 15,0 13,2 27 15 40 22 O 1003,9 10 0,4
14.10.2019 10:00:00 14,2 12,6 23 12 37 20 O 1005,2 - 0,6
14.10.2019 09:00:00 13,9 12,6 19 10 27 14 O 1005,8 - 0,0
14.10.2019 08:00:00 12,5 11,2 5 3 18 10 OZO 1006,8 10 0,0
14.10.2019 07:00:00 13,3 12,2 12 6 20 11 O 1007,5 - 0,8
14.10.2019 06:00:00 13,0 11,1 16 9 31 17 Z 1008,1 - 0,4
14.10.2019 05:00:00 12,6 11,0 14 8 22 12 OZO 1008,8 10 0,6
14.10.2019 04:00:00 13,1 10,6 12 6 22 12 OZO 1009,8 - 0,2
14.10.2019 03:00:00 13,6 10,2 17 9 23 12 ZO 1009,6 - 0,0
14.10.2019 02:00:00 13,2 10,0 6 3 20 11 O 1010,2 20 0,0
14.10.2019 01:00:00 13,5 10,5 11 6 16 8 ZZO 1010,8 - 0,0
14.10.2019 00:00:00 13,3 10,3 8 4 16 9 ZZO 1011,0 - 0,0
13.10.2019 23:00:00 14,7 10,5 14 8 23 12 ZW 1011,1 20 0,0
13.10.2019 22:00:00 14,9 10,9 18 10 24 13 WZW 1010,7 - 0,0
13.10.2019 21:00:00 14,6 10,2 19 10 26 14 WZW 1010,2 - 0,0
13.10.2019 20:00:00 14,9 10,5 22 12 33 18 WZW 1009,7 14 0,0
13.10.2019 19:00:00 15,1 10,9 24 13 35 19 WZW 1009,3 - 0,0
13.10.2019 18:00:00 15,2 10,6 28 15 40 22 WZW 1008,2 - 0,0
13.10.2019 17:00:00 15,9 12,3 30 16 54 29 W 1007,8 14 0,0
13.10.2019 16:00:00 16,0 13,1 35 19 52 28 WZW 1006,6 - 0,0
13.10.2019 15:00:00 15,5 12,6 35 19 52 28 WZW 1005,6 - 0,0
13.10.2019 14:00:00 15,5 13,3 37 20 50 27 ZW 1004,8 10 0,0
13.10.2019 13:00:00 15,2 13,7 36 20 53 29 ZW 1003,8 - 0,4
13.10.2019 12:00:00 15,3 14,0 34 18 50 27 ZW 1002,7 - 1,0
13.10.2019 11:00:00 15,6 14,3 43 23 72 39 ZW 1002,1 10 0,8
13.10.2019 10:00:00 17,5 14,0 50 27 76 41 Z 1000,7 - 0,0
13.10.2019 09:00:00 17,0 14,1 44 24 66 36 Z 1000,3 - 0,0
13.10.2019 08:00:00 16,7 14,3 37 20 60 33 Z 1000,7 12 0,0
13.10.2019 07:00:00 16,4 14,6 39 21 61 33 Z 1001,3 - 0,0
13.10.2019 06:00:00 16,1 14,6 37 20 60 32 Z 1001,9 - 0,0
13.10.2019 05:00:00 15,9 14,6 40 21 59 32 Z 1002,5 12 0,0
13.10.2019 04:00:00 16,1 14,8 34 19 66 36 Z 1003,3 - 0,0
13.10.2019 03:00:00 16,2 15,1 34 18 48 26 Z 1004,5 - 0,0
13.10.2019 02:00:00 16,0 15,0 18 10 31 17 ZW 1004,6 14 0,0
13.10.2019 01:00:00 14,5 13,9 13 7 35 19 N 1005,4 - 0,6
13.10.2019 00:00:00 14,7 14,1 8 5 24 13 NNO 1005,9 - 0,2
12.10.2019 23:00:00 14,7 14,1 15 8 31 17 NO 1006,2 8 0,4
12.10.2019 22:00:00 14,4 13,9 21 11 29 15 N 1006,5 - 1,0
12.10.2019 21:00:00 13,9 13,4 8 4 18 10 ONO 1007,1 - 0,2
12.10.2019 20:00:00 13,3 12,7 9 5 22 12 O 1007,4 - 0,2
12.10.2019 19:00:00 13,2 12,7 16 9 21 12 ONO 1007,2 - 0,4
12.10.2019 18:00:00 13,3 12,7 12 6 16 8 ONO 1007,6 - 0,0
12.10.2019 17:00:00 13,1 12,3 10 5 16 9 NO 1008,1 7 0,4
12.10.2019 16:00:00 13,1 12,3 11 6 16 9 NNO 1008,4 - 0,2
12.10.2019 15:00:00 13,1 12,0 8 4 15 8 N 1009,1 - 0,0
12.10.2019 14:00:00 13,2 12,3 10 6 18 10 N 1009,1 7 0,2
12.10.2019 13:00:00 13,2 12,6 11 6 19 10 N 1009,1 - 0,6
12.10.2019 12:00:00 13,1 12,5 14 7 21 12 N 1009,2 - 0,6
12.10.2019 11:00:00 13,3 12,7 11 6 16 9 NNW 1008,9 6 0,4
12.10.2019 10:00:00 13,1 12,3 13 7 22 12 NNW 1008,2 - 0,2
12.10.2019 09:00:00 13,5 13,0 15 8 19 11 WNW 1007,9 - 0,6
12.10.2019 08:00:00 13,6 13,1 14 8 21 11 ZW 1007,7 8 0,6
12.10.2019 07:00:00 13,6 13,1 11 6 16 9 ZZW 1007,6 - 0,0
12.10.2019 06:00:00 13,4 12,8 10 6 16 8 WZW 1007,7 - 0,4
12.10.2019 05:00:00 13,3 12,7 13 7 18 10 W 1007,8 10 0,4
12.10.2019 04:00:00 13,4 12,6 9 5 29 16 NW 1007,8 - 0,8
12.10.2019 03:00:00 14,3 13,5 17 9 31 17 W 1007,8 - 0,2
12.10.2019 02:00:00 14,8 13,8 22 12 56 30 W 1007,7 - 1,2
12.10.2019 01:00:00 16,4 14,2 37 20 56 30 ZZW 1007,7 - 0,0
12.10.2019 00:00:00 16,4 14,4 38 20 58 31 ZZW 1007,7 - 0,0
11.10.2019 23:00:00 16,5 14,5 39 21 59 32 ZZW 1007,6 - 0,0
11.10.2019 22:00:00 16,4 14,8 37 20 59 32 ZZW 1007,8 - 0,0
11.10.2019 21:00:00 16,4 14,6 40 22 56 30 ZZW 1007,6 - 0,0
11.10.2019 20:00:00 16,2 14,9 38 20 60 32 ZZW 1008,4 12 0,2
11.10.2019 19:00:00 16,4 15,1 42 23 63 34 ZW 1008,2 - 0,2
11.10.2019 18:00:00 17,0 14,8 40 21 58 31 ZW 1008,6 - 0,0
11.10.2019 17:00:00 17,4 14,7 38 20 57 31 ZZW 1008,9 12 0,0
11.10.2019 16:00:00 17,2 14,8 36 20 66 35 ZW 1009,1 - 0,0
11.10.2019 15:00:00 17,4 14,5 40 21 60 33 ZW 1009,3 - 0,0
11.10.2019 14:00:00 17,3 14,8 40 21 64 35 ZZW 1009,9 13 0,0
11.10.2019 13:00:00 17,0 14,6 40 22 62 34 ZZW 1010,2 - 0,0
11.10.2019 12:00:00 16,8 14,4 42 23 61 33 ZZW 1010,8 - 0,0
11.10.2019 11:00:00 16,4 14,4 40 21 61 33 ZZW 1010,8 14 0,0
11.10.2019 10:00:00 16,3 14,3 40 22 66 35 ZZW 1010,9 - 0,0

tt = temperatuur
td = dauwpunt
ff = windsnelheid
fx = windstoten
dd = windrichting
ppp = luchtdruk
vv = zicht
rr = neerslag

Weerstations in de omgeving